This demonstration page uses our WeatherBlox Daily Observations layout. Learn more.

Left ArrowRight Arrow

41.55636, -103.73856

Hourly Observations for July 20, 2020

Temp ( °F °C ) Dew Point ( °F °C ) Humidity (%) Winds ( mph kmh ) Pressure ( in mb ) Visibility ( mi km ) Precip ( " mm )
6:58 pm 18:58 Mostly Clear 74 23.1 62 16.5 67 67 ESE 14 22 29.85 1011 10 16 0.00 0.00
7:58 pm 19:58 Mostly Cloudy 69 20.5 56 13.1 63 63 S 22 35 29.88 1012 10 16 0.00 0.00
8:58 pm 20:58 Clear 68 20.1 52 11 56 56 S 26 43 29.82 1010 10 16 0.00 0.00
9:58 pm 21:58 Mostly Cloudy 73 22.7 48 9 42 42 S 26 43 29.83 1010 10 16 0.00 0.00
10:58 pm 22:58 Mostly Cloudy 69 20.4 48 9 48 48 E 23 37 29.92 1013 10 16 0.00 0.00
11:58 pm 23:58 Partly Cloudy 67 19.5 56 13.3 68 68 ESE 15 24 29.94 1014 10 16 0.00 0.00
12:58 am 00:58 Clear 62 16.5 56 13.3 82 82 SE 14 22 29.92 1013 10 16 0.00 0.00
1:58 am 01:58 Clear 65 18.2 54 12.4 69 69 SE 16 26 29.93 1013 10 16 0.00 0.00
2:58 am 02:58 Clear 64 17.8 54 12.1 69 69 SE 17 28 29.91 1013 10 16 0.00 0.00
3:58 am 03:58 Clear 64 17.8 55 12.8 73 73 S 18 30 29.88 1012 10 16 0.00 0.00
4:58 am 04:58 Clear 65 18.5 55 12.9 70 70 SSE 17 28 29.91 1013 10 16 0.00 0.00
5:58 am 05:58 Sunny 61 16.3 56 13.1 81 81 SE 9 15 29.96 1015 10 16 0.00 0.00
6:58 am 06:58 Sunny 64 17.5 56 13.6 78 78 ENE 5 7 29.96 1015 10 16 0.00 0.00
7:58 am 07:58 Sunny 66 19.1 56 13.5 70 70 E 8 13 29.97 1015 10 16 0.00 0.00
8:58 am 08:58 Partly Cloudy 67 19.7 57 13.7 68 68 E 9 15 29.98 1015 10 16 0.00 0.00
9:58 am 09:58 Partly Cloudy 70 21 58 14.2 65 65 E 8 13 29.97 1015 10 16 0.00 0.00
10:58 am 10:58 Sunny 73 22.5 58 14.2 60 60 ENE 7 11 29.96 1015 10 16 0.00 0.00
11:58 am 11:58 Mostly Sunny 78 25.3 56 13.5 48 48 NNE 5 7 29.95 1014 10 16 0.00 0.00
12:58 pm 12:58 Sunny 79 26 56 13.5 46 46 NE 6 9 29.94 1014 10 16 0.00 0.00
1:58 pm 13:58 Sunny 82 27.7 55 12.9 40 40 NE 5 7 29.91 1013 10 16 0.00 0.00
2:58 pm 14:58 Sunny 82 28 56 13.1 40 40 NE 6 9 29.90 1013 10 16 0.00 0.00
3:58 pm 15:58 Sunny 82 27.9 56 13.5 41 41 NE 8 13 29.88 1012 10 16 0.00 0.00
4:58 pm 16:58 Sunny 84 29 54 12.1 35 35 NNE 7 11 29.85 1011 10 16 0.00 0.00
5:58 pm 17:58 Sunny 83 28.6 52 11.1 34 34 N 6 9 29.85 1011 10 16 0.00 0.00

Powered by AerisWeather